Total_Precipitation_Accumulation
0.01 0.02 0.08 0.07 0.07 0.05 0.05 0.06 0.08 0.10 0.08 0.08 0.07 0.06 0.06 0.05 0.04 0.06 0.09 0.09 0.10 0.12 0.16 0.16 0.19 0.24 0.25 0.25 0.30 0.37 0.43 0.32 0.28 0.26 0.20 0.21 0.26 0.20 0.20 0.27 0.44 0.55 0.28
0.00 0.01 0.07 0.07 0.05 0.04 0.04 0.05 0.06 0.07 0.08 0.07 0.07 0.06 0.04 0.04 0.04 0.04 0.05 0.05 0.05 0.07 0.12 0.16 0.19 0.24 0.25 0.24 0.31 0.38 0.38 0.34 0.34 0.35 0.29 0.24 0.23 0.18 0.15 0.18 0.34 0.45 0.32
0.00 0.01 0.03 0.05 0.04 0.04 0.03 0.04 0.05 0.09 0.10 0.07 0.06 0.06 0.05 0.04 0.04 0.04 0.03 0.03 0.02 0.04 0.07 0.12 0.18 0.23 0.27 0.32 0.33 0.35 0.32 0.34 0.37 0.40 0.49 0.54 0.26 0.20 0.20 0.18 0.25 0.27 0.28
0.01 0.01 0.01 0.03 0.05 0.06 0.05 0.05 0.07 0.09 0.12 0.09 0.07 0.07 0.05 0.04 0.04 0.05 0.04 0.03 0.02 0.03 0.05 0.08 0.12 0.19 0.26 0.32 0.36 0.34 0.28 0.30 0.33 0.35 0.44 0.54 0.39 0.26 0.31 0.29 0.34 0.26 0.25
0.01 0.02 0.04 0.05 0.07 0.11 0.09 0.09 0.11 0.11 0.12 0.10 0.08 0.07 0.05 0.05 0.04 0.04 0.04 0.04 0.04 0.04 0.04 0.07 0.09 0.16 0.23 0.25 0.25 0.25 0.23 0.30 0.38 0.28 0.30 0.42 0.47 0.34 0.30 0.36 0.37 0.30 0.24
0.02 0.03 0.08 0.09 0.12 0.17 0.17 0.18 0.21 0.18 0.16 0.12 0.09 0.06 0.07 0.06 0.03 0.02 0.04 0.08 0.05 0.02 0.03 0.05 0.10 0.16 0.21 0.24 0.23 0.25 0.31 0.35 0.29 0.29 0.31 0.45 0.55 0.39 0.35 0.38 0.34 0.42 0.32
0.12 0.10 0.12 0.15 0.17 0.24 0.24 0.21 0.29 0.29 0.28 0.18 0.11 0.08 0.07 0.05 0.02 0.02 0.06 0.08 0.07 0.04 0.02 0.02 0.06 0.11 0.15 0.20 0.21 0.25 0.33 0.30 0.36 0.38 0.35 0.44 0.38 0.38 0.36 0.36 0.39 0.52 0.46
0.32 0.26 0.21 0.24 0.28 0.32 0.32 0.34 0.45 0.46 0.38 0.23 0.11 0.11 0.09 0.07 0.03 0.02 0.05 0.05 0.08 0.08 0.03 0.02 0.03 0.05 0.07 0.12 0.16 0.22 0.32 0.36 0.38 0.33 0.24 0.29 0.34 0.36 0.30 0.31 0.36 0.50 0.55
0.61 0.48 0.38 0.36 0.38 0.44 0.50 0.52 0.61 0.64 0.55 0.35 0.17 0.15 0.13 0.08 0.03 0.02 0.03 0.03 0.03 0.03 0.02 0.02 0.02 0.02 0.03 0.06 0.10 0.18 0.28 0.29 0.29 0.24 0.12 0.15 0.28 0.25 0.21 0.23 0.29 0.41 0.51
0.66 0.62 0.55 0.51 0.53 0.61 0.67 0.76 0.80 0.88 0.93 0.67 0.38 0.24 0.16 0.11 0.06 0.03 0.03 0.02 0.01 0.01 0.01 0.01 0.01 0.01 0.02 0.04 0.07 0.13 0.16 0.18 0.25 0.16 0.10 0.12 0.23 0.16 0.13 0.16 0.22 0.23 0.30
0.52 0.55 0.57 0.58 0.63 0.64 0.65 0.70 0.89 1.01 1.11 0.88 0.53 0.41 0.30 0.18 0.18 0.14 0.09 0.05 0.04 0.03 0.01 0.00 0.00 0.00 0.01 0.03 0.06 0.08 0.07 0.09 0.16 0.12 0.07 0.10 0.14 0.09 0.07 0.06 0.07 0.10 0.15
0.48 0.44 0.44 0.44 0.52 0.58 0.57 0.76 1.00 1.03 1.11 0.86 0.71 0.66 0.53 0.52 0.44 0.28 0.22 0.20 0.14 0.08 0.03 0.01 0.00 0.00 0.00 0.00 0.01 0.02 0.02 0.05 0.10 0.09 0.05 0.10 0.10 0.05 0.02 0.01 0.01 0.02 0.04
0.41 0.38 0.37 0.38 0.40 0.48 0.67 0.89 1.07 1.10 1.12 1.13 1.16 0.98 0.89 0.78 0.54 0.30 0.24 0.23 0.18 0.16 0.08 0.02 0.01 0.00 0.00 0.00 0.00 0.00 0.01 0.04 0.09 0.07 0.04 0.08 0.10 0.05 0.02 0.01 0.00 0.01 0.02
0.46 0.44 0.38 0.29 0.31 0.38 0.51 0.73 0.98 1.03 1.06 1.11 1.06 0.83 0.88 0.86 0.62 0.44 0.42 0.38 0.24 0.20 0.17 0.07 0.02 0.00 0.00 0.00 0.00 0.00 0.01 0.02 0.05 0.04 0.04 0.06 0.09 0.06 0.03 0.02 0.01 0.00 0.01
0.53 0.61 0.59 0.43 0.37 0.39 0.44 0.49 0.63 0.72 0.81 1.05 1.10 0.81 0.76 0.74 0.73 0.67 0.50 0.49 0.43 0.40 0.31 0.18 0.08 0.04 0.01 0.00 0.00 0.00 0.00 0.01 0.02 0.02 0.03 0.04 0.06 0.06 0.06 0.05 0.04 0.02 0.01
0.36 0.49 0.57 0.55 0.54 0.52 0.45 0.39 0.40 0.45 0.57 0.70 0.69 0.62 0.62 0.62 0.69 0.75 0.58 0.45 0.41 0.51 0.47 0.34 0.20 0.10 0.06 0.03 0.01 0.01 0.00 0.00 0.01 0.01 0.02 0.04 0.04 0.04 0.05 0.04 0.05 0.05 0.04
0.26 0.32 0.42 0.50 0.56 0.58 0.59 0.58 0.47 0.46 0.51 0.51 0.51 0.56 0.61 0.58 0.66 0.76 0.62 0.44 0.34 0.43 0.51 0.52 0.42 0.21 0.10 0.07 0.03 0.01 0.01 0.01 0.01 0.01 0.01 0.03 0.06 0.03 0.04 0.07 0.08 0.07 0.09
0.25 0.25 0.31 0.36 0.43 0.52 0.61 0.68 0.66 0.61 0.55 0.49 0.45 0.42 0.45 0.45 0.49 0.64 0.64 0.49 0.39 0.46 0.58 0.66 0.61 0.44 0.20 0.10 0.05 0.02 0.01 0.01 0.01 0.02 0.02 0.01 0.04 0.05 0.07 0.08 0.11 0.13 0.14
0.24 0.23 0.24 0.28 0.32 0.40 0.50 0.57 0.57 0.56 0.51 0.49 0.48 0.37 0.35 0.37 0.45 0.61 0.69 0.65 0.61 0.60 0.62 0.66 0.68 0.59 0.38 0.20 0.09 0.05 0.03 0.01 0.01 0.02 0.02 0.01 0.01 0.02 0.05 0.05 0.06 0.08 0.13
0.24 0.24 0.24 0.26 0.27 0.30 0.35 0.42 0.47 0.42 0.40 0.45 0.44 0.42 0.46 0.52 0.57 0.72 0.86 0.93 0.97 0.90 0.82 0.86 0.92 0.77 0.55 0.38 0.23 0.11 0.05 0.02 0.02 0.02 0.02 0.02 0.02 0.01 0.01 0.01 0.03 0.03 0.05
0.18 0.17 0.19 0.24 0.26 0.24 0.23 0.28 0.32 0.32 0.39 0.46 0.53 0.59 0.64 0.66 0.72 0.88 1.05 1.23 1.30 1.11 1.04 1.14 1.22 1.17 0.85 0.57 0.47 0.33 0.19 0.08 0.05 0.05 0.04 0.03 0.02 0.02 0.01 0.00 0.02 0.07 0.09
0.05 0.09 0.13 0.15 0.17 0.16 0.17 0.23 0.31 0.37 0.41 0.52 0.68 0.78 0.80 0.79 0.84 0.88 1.04 1.17 1.19 1.17 1.16 1.15 1.22 1.35 1.15 0.81 0.76 0.81 0.59 0.37 0.15 0.07 0.07 0.05 0.05 0.04 0.03 0.02 0.01 0.02 0.06
0.02 0.03 0.06 0.11 0.14 0.14 0.22 0.41 0.67 0.91 0.97 0.98 0.99 1.12 1.22 1.18 1.10 1.08 1.10 1.21 1.25 1.31 1.23 1.18 1.15 1.25 1.24 1.04 0.89 1.03 0.84 0.63 0.51 0.26 0.15 0.17 0.14 0.10 0.06 0.05 0.04 0.02 0.01
0.03 0.03 0.04 0.09 0.15 0.18 0.35 0.68 1.06 1.38 1.47 1.46 1.57 1.59 1.64 1.57 1.42 1.40 1.40 1.46 1.38 1.30 1.19 1.16 1.13 1.14 1.29 1.22 1.09 0.94 0.79 0.64 0.71 0.59 0.36 0.27 0.27 0.21 0.16 0.11 0.08 0.06 0.05
0.10 0.11 0.13 0.20 0.34 0.50 0.65 0.83 1.12 1.31 1.43 1.56 1.70 1.83 1.93 2.05 2.02 1.95 1.87 1.70 1.48 1.34 1.30 1.32 1.26 1.24 1.26 1.20 1.11 1.01 0.97 0.84 0.63 0.59 0.59 0.44 0.34 0.30 0.27 0.22 0.18 0.13 0.10
0.24 0.27 0.31 0.41 0.51 0.58 0.70 0.84 0.98 1.06 1.23 1.42 1.57 1.73 1.85 1.96 1.98 1.94 1.81 1.57 1.37 1.26 1.30 1.37 1.35 1.32 1.27 1.23 1.11 0.96 0.89 0.85 0.73 0.71 0.63 0.61 0.62 0.40 0.31 0.28 0.24 0.20 0.16